Regional Weather Roundup
Issued by NWS

Home | Current Version | Previous Version | Graphics & Text | Print | Product List | Glossary On
Versions: 1 2 3 4 5 6 7 8 9 10 11 12 13 14 15 16 17 18 19 20 21 22 23 24 25 26 27 28 29 30 31 32 33 34 35 36 37 38 39 40 41 42 43 44 45 46 47 48 49 50
000
ASUS43 KTOP 200608
RWRKS

WEATHER ROUNDUP FOR KANSAS
NATIONAL WEATHER SERVICE GOODLAND KS
100 AM CDT WED AUG 20 2014

NOTE:  "FAIR" INDICATES FEW OR NO CLOUDS BELOW 12,000 FEET WITH NO
SIGNIFICANT WEATHER AND/OR OBSTRUCTIONS TO VISIBILITY.

KSZ001>006-013>018-027>032-041>047-200700-
NORTHWEST KANSAS

CITY           SKY/WX    TMP DP  RH WIND       PRES   REMARKS
GOODLAND       CLOUDY    74  54  49 S9        29.86S
6HR MIN TEMP:  73; 6HR MAX TEMP:  91;

HAYS           FAIR      81  61  50 S18       29.81S
HILL CITY      FAIR      78  62  57 SW9       29.79S
6HR MIN TEMP:  78; 6HR MAX TEMP:  95;

RUSSELL        FAIR      78  62  57 S15       29.80S
6HR MIN TEMP:  76; 6HR MAX TEMP:  93;

$$

KSZ061>065-074>080-084>089-200700-
SOUTHWEST KANSAS

CITY           SKY/WX    TMP DP  RH WIND       PRES   REMARKS
DODGE CITY     FAIR      76  60  57 S14       29.86S
6HR MIN TEMP:  76; 6HR MAX TEMP:  90;

ELKHART          N/A     73  59  61 SE14        N/A
GARDEN CITY    FAIR      73  61  65 S10       29.86S
6HR MIN TEMP:  73; 6HR MAX TEMP:  91;

GREAT BEND     FAIR      79  61  53 S16       29.83F
LIBERAL        FAIR      77  59  53 S13       29.90S
PRATT          FAIR      77  59  53 S13       29.87S
$$

KSZ066>073-081>083-090>101-200700-
SOUTHEAST KANSAS

CITY           SKY/WX    TMP DP  RH WIND       PRES   REMARKS
CHANUTE        FAIR      78  70  76 S7        29.87R
6HR MIN TEMP:  78; 6HR MAX TEMP:  93;

COFFEYVILLE    FAIR      79  72  79 S8        29.86S
6HR MIN TEMP:  79; 6HR MAX TEMP:  92;

HUTCHINSON     FAIR      79  67  66 S12       29.85R
6HR MIN TEMP:  78; 6HR MAX TEMP:  94;

MEDICINE LODGE   N/A     77  63  61 S8        29.85S
NEWTON         FAIR      79  64  61 S13       29.89S
PARSONS        FAIR      78  71  79 S5        29.88R
6HR MIN TEMP:  77; 6HR MAX TEMP:  91;

WICHITA INTL   FAIR      79  68  69 S13       29.85R
6HR MIN TEMP:  79; 6HR MAX TEMP:  92;

WICHITA JABRA  FAIR      80  68  66 S13       29.86R
6HR MIN TEMP:  79; 6HR MAX TEMP:  90;

WICHITA MCCONL FAIR      79  70  73 S15       29.86R
WINFIELD       FAIR      78  70  76 S10       29.88R
6HR MIN TEMP:  78; 6HR MAX TEMP:  91;

$$

KSZ007>012-019>026-033>040-048>060-102>105-200700-
NORTHEAST KANSAS

CITY           SKY/WX    TMP DP  RH WIND       PRES   REMARKS
CONCORDIA      FAIR      80  67  64 S15       29.79S
6HR MIN TEMP:  74; 6HR MAX TEMP:  87;

EMPORIA        FAIR      76  67  73 S8        29.85R
6HR MIN TEMP:  73; 6HR MAX TEMP:  89;

LAWRENCE       FAIR      79  68  69 S7        29.82S
6HR MIN TEMP:  75; 6HR MAX TEMP:  92;

MANHATTAN      FAIR      81  68  64 SW6       29.81R
6HR MIN TEMP:  77; 6HR MAX TEMP:  93;

MARYSVILLE     FAIR      77  68  73 S6        29.81R
OLATHE IND     FAIR      77  69  76 S7        29.85R
6HR MIN TEMP:  75; 6HR MAX TEMP:  91;

OLATHE EXE     FAIR      77  69  76 S7        29.84R
6HR MIN TEMP:  77; 6HR MAX TEMP:  89;

SALINA         FAIR      81  68  64 S13       29.81S
6HR MIN TEMP:  79; 6HR MAX TEMP:  93;

TOPEKA BILLARD FAIR      80  68  66 S6        29.82R
6HR MIN TEMP:  79; 6HR MAX TEMP:  95;

TOPEKA FORBES  FAIR      76  66  71 S6        29.83R
6HR MIN TEMP:  76; 6HR MAX TEMP:  94;

$$


USA.gov is the U.S. government's official web portal to all federal, state and local government web resources and services.